Simultaneous Nadir Overpasses (SNOs) Predictions

Prediction of SNOs between AQUA and METOP-C Satellite Orbit:

Table of predicted SNOs for the next 14.0 days since TLE Epoch: 8/6/2022
Index Date (AQUA) Time (AQUA) Lat,Lon (AQUA) SZA (AQUA ) Date (METOP-C) Time (METOP-C) Lat,Lon (METOP-C) SZA (METOP-C ) Distance(km) Time Diff (sec)
1 08/08/2022 04:43:12 73.99, 103.94 57.88 08/08/2022 04:42:14 73.97, 104.00 57.87 3.15 58
2 08/08/2022 05:32:38 -74.04, -88.51 122.06 08/08/2022 05:32:54 -74.03, -88.52 122.07 0.57 16
3 08/08/2022 06:22:16 74.61, 77.77 58.57 08/08/2022 06:23:23 74.59, 80.23 58.45 72.60 67
4 08/10/2022 23:27:13 -73.59, 3.82 121.76 08/10/2022 23:26:04 -73.52, 2.01 121.74 57.62 69
5 08/11/2022 00:16:48 74.01, 170.53 58.71 08/11/2022 00:16:34 74.03, 170.55 58.73 2.66 14
6 08/11/2022 01:06:15 -74.10, -22.03 121.19 08/11/2022 01:07:14 -74.09, -21.97 121.21 2.08 59
7 08/13/2022 19:00:55 -73.97, 69.59 120.50 08/13/2022 19:00:15 -73.97, 69.48 120.49 3.49 40
8 08/13/2022 19:50:23 74.04,-122.92 59.58 08/13/2022 19:50:54 74.04,-123.02 59.58 3.17 31
9 08/16/2022 13:45:05 73.98, -31.45 60.37 08/16/2022 13:43:55 73.96, -31.45 60.37 1.53 70
10 08/16/2022 14:34:32 -74.06, 136.01 119.54 08/16/2022 14:34:34 -74.07, 136.13 119.53 3.87 2
11 08/16/2022 15:24:00 74.13, -56.51 60.55 08/16/2022 15:25:13 74.14, -56.36 60.55 4.80 73
12 08/19/2022 09:18:41 74.03, 35.04 61.33 08/19/2022 09:18:15 74.02, 35.08 61.32 2.23 26
13 08/19/2022 10:08:07 -74.05,-157.36 118.64 08/19/2022 10:08:55 -74.07,-157.46 118.63 3.39 48



Historial Predications of SNOs between AQUA and METOP-C
